Content
SEND FEEDBACK

Daily
Averages
Monthly
Summary
Indonesia

SURABAYA, INDONESIA


Home > Asia > Indonesia
Elevation: 3 meters     Latitude: 07 13S     Longitude: 112 43E

WEATHER
 
SELECT A DAY
Number of Records: 85,636;   Date Range: 10/5/04 - 8/31/14
 
SHARE

PRINT THIS DATA

[ ← Previous Day ]
WEATHER ALMANAC - 13 FEBRUARY, 2013
[ Next Day → ]
[ °F ]   °C
Weather ElementAverageHighLow
Temperature26.7 °C31 °C (12:30 pm)24 °C (2:30 am)
Dewpoint22.8 °C25 °C (7:00 am)22 °C (12:30 am)
Humidity80 %94 % (7:00 am)62 % (12:30 pm)
Barometer1007.8 hPa1009.1 hPa (12:30 am)1005.1 hPa (3:00 pm)
Wind Speed8.4 km/h22.2 km/h (11:30 am)
Weather ElementAverage
Visibility8.9 km
Wind DirectionSSW (188.2 °)

Weather ElementTotal
Precipitation---
Cooling Degree Days9.2 (Base 18.3)
Growing Degree Days17.5 (Base 10)
Averaged from 38 records on 13 February, 2013
WEATHER CONDITIONS BREAKOUT
WIND DIRECTION BREAKOUT
WEATHER BY HOUR - 13 FEBRUARY, 2013
[ °F ]   °C
Local TimeTemperatureDewpointHumidityBarometerVisibilityWind DirectionWind SpeedGust SpeedPrecipitationEventsConditions
12:30 AM25 °C22 °C83 %1009.1 hPa10 kmWNW (290°)7.4 km/hPartly Cloudy
1:00 AM25 °C22 °C83 %1008.1 hPa10 kmWest (260°)5.6 km/hPartly Cloudy
1:30 AM25 °C22 °C83 %1008.1 hPa10 kmWest (270°)5.6 km/hPartly Cloudy
2:30 AM24 °C22 °C89 %1008.1 hPa8 kmCalm
3:00 AM24 °C22 °C89 %1007.1 hPa5 kmWest (270°)5.6 km/hHaze
4:00 AM24 °C22 °C89 %1007.1 hPaWSW (250°)7.4 km/hClear
4:30 AM24 °C22 °C89 %1008.1 hPaWest (260°)7.4 km/hClear
5:00 AM24 °C22 °C89 %1007.1 hPaWSW (240°)5.6 km/hClear
5:30 AM24 °C22 °C89 %1007.1 hPa4 kmWest (270°)5.6 km/hHaze
6:00 AM24 °C22 °C89 %1008.1 hPa4 kmWest (270°)5.6 km/hHaze
7:00 AM26 °C25 °C94 %1009.1 hPa4 kmVariable1.9 km/hHaze
7:30 AM27 °C25 °C89 %1009.1 hPa5 kmVariable1.9 km/hHaze
9:00 AM30 °C23 °C66 %1009.1 hPa8 kmVariable5.6 km/hPartly Cloudy
9:30 AM30 °C24 °C70 %1009.1 hPa9 kmVariable5.6 km/hPartly Cloudy
10:00 AM30 °C23 °C66 %1009.1 hPa9 kmVariable5.6 km/hScattered Clouds
10:30 AM30 °C23 °C66 %1009.1 hPa9 kmVariable7.4 km/hScattered Clouds
11:30 AM26 °C23 °C83 %1009.1 hPa6 kmNW (320°)22.2 km/hRain-ThunderstormThunderstorms and Rain
12:00 PM28 °C24 °C79 %1008.1 hPa10 kmWest (260°)14.8 km/hScattered Clouds
12:30 PM31 °C23 °C62 %1007.1 hPa10 kmWest (260°)7.4 km/hScattered Clouds
1:30 PM30 °C22 °C62 %1006.1 hPa10 kmENE (60°)13 km/hMostly Cloudy
2:00 PM30 °C23 °C66 %1006.1 hPa10 kmNE (50°)16.7 km/hScattered Clouds
2:30 PM30 °C24 °C70 %1006.1 hPa10 kmENE (70°)13 km/hPartly Cloudy
3:00 PM31 °C23 °C62 %1005.1 hPa10 kmENE (70°)9.3 km/hScattered Clouds
3:30 PM30 °C23 °C66 %1006.1 hPa10 kmEast (90°)13 km/hPartly Cloudy
4:00 PM27 °C22 °C74 %1006.1 hPa10 kmNNW (330°)13 km/hPartly Cloudy
4:30 PM27 °C22 °C74 %1006.1 hPa10 kmWest (270°)16.7 km/hPartly Cloudy
5:00 PM27 °C22 °C74 %1006.1 hPa10 kmWSW (240°)9.3 km/hPartly Cloudy
6:00 PM26 °C22 °C78 %1006.1 hPa10 kmWSW (250°)7.4 km/hPartly Cloudy
7:00 PM26 °C23 °C83 %1007.1 hPa10 kmWSW (250°)9.3 km/hScattered Clouds
7:30 PM26 °C23 °C83 %1007.1 hPa10 kmWNW (300°)11.1 km/hPartly Cloudy
8:00 PM26 °C23 °C83 %1008.1 hPa10 kmWest (270°)9.3 km/hPartly Cloudy
8:30 PM26 °C23 °C83 %1008.1 hPa10 kmWSW (250°)9.3 km/hPartly Cloudy
9:00 PM25 °C23 °C89 %1008.1 hPa10 kmWest (280°)11.1 km/hPartly Cloudy
9:30 PM25 °C23 °C89 %1009.1 hPa10 kmWNW (300°)9.3 km/hPartly Cloudy
10:00 PM25 °C23 °C89 %1009.1 hPa10 kmVariable3.7 km/hPartly Cloudy
10:30 PM25 °C23 °C89 %1009.1 hPa10 kmWNW (300°)5.6 km/hPartly Cloudy
11:00 PM25 °C23 °C89 %1009.1 hPa10 kmWest (260°)3.7 km/hPartly Cloudy
11:30 PM25 °C23 °C89 %1008.1 hPa10 kmWNW (290°)7.4 km/hPartly Cloudy
Hourly data recorded from WARR, located 0 kilometers away from Surabaya, Indonesia







STORIES FROM OUR PARTNERS